Home > Weather > Hanoi > Past weeks

Flag for Vietnam Weather for the Past 2 Weeks in Hanoi, Vietnam

Now
48 °F

Fog.


Feels Like: 47 °F
Forecast: 49 / 69 °F
Wind: 3 mph from North

Location: Ha Noi Airport

Current Time: Feb 7, 2016 at 6:39:34 AM

Latest Report: Feb 7, 2016 at 6:00 AM


Visibility: 3 mi

Pressure: 30.36 "Hg

Humidity: 87%

Dew point: 45 °F

Location of HanoiLocation

Historic Weather in Hanoi — Graph

°F

Hanoi Temperature Yesterday

Maximum temperature yesterday: 68 °F (at 1:30 PM)
Minimum temperature yesterday: 55 °F (at 10:30 PM)
Average temperature yesterday: 61 °F

High & Low Weather Summary for the Past Weeks

 TemperatureHumidityPressure
High68 °F (Feb 6, 1:30 PM)100% (Jan 26, 12:30 AM)30.74 "Hg (Jan 26, 12:30 AM)
Low41 °F (Jan 24, 10:30 AM)33% (Feb 6, 2:00 PM)29.95 "Hg (Jan 28, 3:00 PM)
Average54 °F80%30.25 "Hg
* Reported Jan 23 5:00 AM — Feb 7 5:00 AM, Hanoi, Weather by CustomWeather, © 2016

Note: Actual official high and low records may vary slightly from our data, if they occured in-between our weather recording intervals... More about our weather records

Advertising

Hanoi Weather History for the Previous 24 Hours

 ConditionsComfort  
Time TempWeatherWind HumidityBarometerVisibility
5:00 AM
Sun, Feb 7
50 °FClear.2 mph82%30.36 "Hg4 mi
4:00 AM48 °FClear.6 mph87%30.36 "Hg4 mi
3:30 AM50 °FClear.2 mph76%30.36 "Hg4 mi
3:00 AM50 °FClear.2 mph82%30.36 "Hg5 mi
2:30 AM50 °FClear.2 mph82%30.36 "Hg4 mi
2:00 AM52 °FClear.2 mph77%30.36 "Hg4 mi
1:30 AM52 °FClear.2 mph82%30.39 "Hg4 mi
1:00 AM55 °FClear.2 mph63%30.39 "Hg5 mi
12:30 AM55 °FClear.1 mph63%30.39 "Hg4 mi
12:00 AM57 °FClear.3 mph55%30.39 "Hg4 mi
11:30 PM
Sat, Feb 6
55 °FPassing clouds.1 mph63%30.39 "Hg4 mi
11:00 PM55 °FPassing clouds.3 mph63%30.39 "Hg4 mi
10:30 PM55 °FClear.7 mph63%30.39 "Hg4 mi
10:00 PM57 °FClear.5 mph59%30.39 "Hg5 mi
9:30 PM59 °FClear.6 mph55%30.36 "Hg5 mi
9:00 PM59 °FClear.5 mph51%30.36 "Hg5 mi
8:30 PM57 °FClear.5 mph63%30.33 "Hg4 mi
8:00 PM57 °FFog.5 mph77%30.33 "Hg3 mi
7:30 PM59 °FClear.3 mph68%30.30 "Hg4 mi
7:00 PM61 °FClear.2 mph55%30.30 "Hg4 mi
6:30 PM63 °FClear.5 mph49%30.27 "Hg5 mi
6:00 PM64 °FClear.3 mph40%30.27 "Hg10 mi
5:30 PM64 °FSunny.5 mph40%30.27 "Hg10 mi
5:00 PM66 °FSunny.7 mph37%30.27 "Hg10 mi
4:30 PM68 °FPassing clouds.7 mph33%30.27 "HgN/A
4:00 PM68 °FPassing clouds.8 mph33%30.24 "HgN/A
3:30 PM68 °FPassing clouds.8 mph33%30.27 "HgN/A
3:00 PM68 °FPassing clouds.9 mph33%30.27 "HgN/A
2:30 PM68 °FPassing clouds.8 mph33%30.27 "HgN/A
2:00 PM68 °FPassing clouds.12 mph33%30.30 "HgN/A
1:30 PM68 °FPassing clouds.10 mph35%30.30 "HgN/A
1:00 PM66 °FPassing clouds.12 mph37%30.33 "HgN/A
12:30 PM64 °FPassing clouds.13 mph37%30.36 "HgN/A
12:00 PM66 °FPassing clouds.13 mph37%30.39 "HgN/A
11:00 AM64 °FPassing clouds.15 mph40%30.42 "HgN/A
10:30 AM64 °FPassing clouds.14 mph40%30.42 "HgN/A
10:00 AM63 °FSunny.16 mph39%30.42 "Hg10 mi
9:00 AM61 °FPassing clouds.14 mph48%30.42 "HgN/A
8:00 AM59 °FSunny.14 mph48%30.39 "Hg10 mi
7:30 AM59 °FSunny.12 mph48%30.39 "Hg10 mi
7:00 AM59 °FSunny.13 mph48%30.36 "Hg10 mi
6:30 AM59 °FClear.13 mph48%30.36 "Hg10 mi
6:00 AM59 °FClear.12 mph51%30.33 "Hg10 mi
Weather by CustomWeather, © 2016

See weather overviewHow to use our weather pages